Regional Weather Roundup
Issued by NWS

Home | Current Version | Previous Version | Text Only | Print | Product List | Glossary On
Versions: 1 2 3 4 5 6 7 8 9 10 11 12 13 14 15 16 17 18 19 20 21 22 23 24 25 26 27 28 29 30 31 32 33 34 35 36 37 38 39 40 41 42 43 44 45 46 47 48 49 50
000
ASUS46 KPQR 061910
RWROR

OREGON REGIONAL WEATHER ROUNDUP
NATIONAL WEATHER SERVICE PORTLAND OR
1100 AM PST FRI MAR 06 2015

NOTE: "FAIR" INDICATES FEW OR NO CLOUDS BELOW 12,000 FEET WITH
NO SIGNIFICANT WEATHER AND/OR OBSTRUCTIONS TO VISIBILITY.

ORZ001>013-062000-
NORTHWEST OREGON


CITY           SKY/WX    TMP DP  RH WIND       PRES   REMARKS
ASTORIA        FAIR      54  42  64 N5        30.39S
NEWPORT        FAIR      52  46  82 W6        30.42S
PORTLAND       PTSUNNY   49  40  71 NW5       30.42F
VANCOUVER WA   FAIR      49  37  63 SW5       30.42F
SCAPPOOSE      FAIR      52  39  61 CALM      30.41F
HILLSBORO      FAIR      53  38  56 CALM      30.41S
AURORA         FAIR      53  39  59 VRB3      30.41F
MCMINNVILLE    FAIR      52  41  66 CALM      30.42F
SALEM          FAIR      54  38  54 N5        30.39F
CORVALLIS      FAIR      52  43  71 CALM      30.42S
EUGENE         PTSUNNY   53  42  66 CALM      30.40F
$$

ORZ021-028-062000-
SOUTHWEST OREGON


CITY           SKY/WX    TMP DP  RH WIND       PRES   REMARKS
NORTH BEND     FAIR      52  48  87 W5        30.41F
BROOKINGS      FAIR      56  44  64 CALM      30.37S
ROSEBURG       FAIR      55  43  63 CALM      30.38F
SEXTON SUMMIT  FAIR      58  32  37 VRB7      30.37R
MEDFORD        FAIR      51  36  56 CALM      30.38F
$$

ORZ014>016-041-062000-
COLUMBIA GORGE


CITY           SKY/WX    TMP DP  RH WIND       PRES   REMARKS
TROUTDALE      FAIR      54  38  54 CALM      30.41S
THE DALLES     FAIR      50  35  56 CALM      30.40F
$$

ORZ029>031-041-044-049-050-061>064-502-503-505>511-062000-
EASTERN OREGON


CITY           SKY/WX    TMP DP  RH WIND       PRES   REMARKS
REDMOND        FAIR      57  25  29 VRB3      30.38F
BEND           FAIR      55  25  30 CALM      30.38S
PRINEVILLE     FAIR      55  27  33 VRB3      30.39F
KLAMATH FALLS  FAIR      50  26  39 CALM      30.41F
LAKEVIEW       FAIR      52  25  35 SE5       30.42F
HERMISTON      FAIR      52  32  46 CALM      30.39F
PENDLETON      FAIR      59  28  30 NW7       30.37F
JOHN DAY       FAIR      52  22  30 NE3       30.41S
MEACHAM        FAIR      57  20  23 E5        30.38S
LA GRANDE      FAIR      48  23  37 NE3       30.41F
BAKER CITY     FAIR      50  25  37 VRB3      30.43F
BURNS          FAIR      51  22  31 CALM      30.43F
ROME             N/A     54  15  21 CALM      30.41F
ONTARIO        FAIR      50  24  36 CALM      30.48F
$$


USA.gov is the U.S. government's official web portal to all federal, state and local government web resources and services.